Volver al catálogo

OVZON-3

ActivoComunicacionesGEO
NORAD 58698·PAYLOAD·🇸🇪 Sweden

Lanzado Jan 3, 2024 desde Cape Canaveral Space Force Station

Loading…

TLE

ActualizadoSource: Space-Track

Época: Sep 12, 2026, 10:46 UTC

1 58698U 24003A   26255.44864888  .00000037  00000-0  00000-0 0  9995
2 58698   0.0125 169.9200 0000249 271.1537 131.6008  1.00273789  8323

Sigue OVZON-3 en tiempo real con AllMySat

Download on the App Store